When you browse on this site, cookies collect data to enhance your experience and personalize the content and advertising you see.
Visit our Privacy Policy to learn more. By continuing to use the site, you agree to this use of cookies and data.
  • In Czech Republic
  • List of Countries
  • For 7 days
  • Water Temperature
  • Satellite Maps
  • Weather Map
  • Weather Widgets
  • user-avatar
    Login

    Hourly Weather Thunder Bay

    Today, 24 April, Wednesday

    Time Temperature Precipitation Wind Pressure Humidity
    00:00 +4°C° 0 mm 2 mps 736 mmHg 50%
    01:00 +4°C° 0 mm 2 mps 735 mmHg 49%
    02:00 +3°C° 0 mm 2 mps 735 mmHg 49%
    03:00 +3°C° 0 mm 2 mps 734 mmHg 49%
    04:00 +3°C° 0.1 mm 2 mps 734 mmHg 53%
    05:00 +3°C° 0.1 mm 2 mps 733 mmHg 57%
    06:00 +3°C° 0.1 mm 2 mps 733 mmHg 61%
    07:00 +3°C° 0.9 mm 3 mps 732 mmHg 70%
    08:00 +3°C° 0.9 mm 3 mps 732 mmHg 79%
    09:00 +3°C° 0.9 mm 3 mps 731 mmHg 88%
    10:00 +5°C° 0.2 mm 3 mps 731 mmHg 84%
    11:00 +7°C° 0.2 mm 4 mps 730 mmHg 79%
    12:00 +10°C° 0.2 mm 4 mps 730 mmHg 75%
    13:00 +11°C° 0.1 mm 4 mps 729 mmHg 71%
    14:00 +12°C° 0.1 mm 4 mps 729 mmHg 68%
    15:00 +13°C° 0.1 mm 4 mps 728 mmHg 65%
    16:00 +12°C° 0.1 mm 3 mps 728 mmHg 68%
    17:00 +12°C° 0.1 mm 3 mps 727 mmHg 70%
    18:00 +12°C° 0.1 mm 2 mps 727 mmHg 72%
    19:00 +10°C° 0.1 mm 2 mps 727 mmHg 78%
    20:00 +9°C° 0.1 mm 2 mps 727 mmHg 84%
    21:00 +8°C° 0.1 mm 2 mps 727 mmHg 90%
    22:00 +8°C° 0 mm 3 mps 727 mmHg 89%
    23:00 +8°C° 0 mm 3 mps 727 mmHg 89%

    Tomorrow, 25 April, Thursday

    Time Temperature Precipitation Wind Pressure Humidity
    00:00 +7°C° 0 mm 4 mps 727 mmHg 88%
    01:00 +7°C° 0 mm 4 mps 728 mmHg 87%
    02:00 +7°C° 0 mm 4 mps 728 mmHg 86%
    03:00 +6°C° 0 mm 4 mps 728 mmHg 84%
    04:00 +6°C° 0 mm 4 mps 729 mmHg 77%
    05:00 +6°C° 0 mm 4 mps 730 mmHg 71%
    06:00 +6°C° 0 mm 5 mps 730 mmHg 64%
    07:00 +8°C° 0 mm 5 mps 731 mmHg 54%
    08:00 +10°C° 0 mm 6 mps 731 mmHg 44%
    09:00 +13°C° 0 mm 6 mps 732 mmHg 34%
    10:00 +14°C° 0 mm 6 mps 731 mmHg 31%
    11:00 +15°C° 0 mm 6 mps 731 mmHg 28%
    12:00 +16°C° 0 mm 5 mps 731 mmHg 25%
    13:00 +16°C° 0 mm 5 mps 731 mmHg 25%
    14:00 +17°C° 0 mm 4 mps 730 mmHg 25%
    15:00 +18°C° 0 mm 3 mps 730 mmHg 24%
    16:00 +17°C° 0 mm 3 mps 730 mmHg 28%
    17:00 +16°C° 0 mm 3 mps 730 mmHg 32%
    18:00 +14°C° 0 mm 3 mps 730 mmHg 37%
    19:00 +13°C° 0 mm 4 mps 730 mmHg 40%
    20:00 +11°C° 0 mm 4 mps 731 mmHg 42%
    21:00 +10°C° 0 mm 4 mps 731 mmHg 45%
    22:00 +8°C° 0 mm 4 mps 731 mmHg 46%
    23:00 +6°C° 0 mm 4 mps 731 mmHg 46%

    Day after tomorrow, 26 April, Friday

    Time Temperature Precipitation Wind Pressure Humidity
    00:00 +5°C° 0 mm 4 mps 731 mmHg 46%
    01:00 +4°C° 0 mm 4 mps 731 mmHg 51%
    02:00 +4°C° 0 mm 3 mps 731 mmHg 55%
    03:00 +3°C° 0 mm 3 mps 731 mmHg 59%
    04:00 +3°C° 0 mm 3 mps 731 mmHg 62%
    05:00 +3°C° 0 mm 4 mps 731 mmHg 64%
    06:00 +1°C° 0 mm 5 mps 732 mmHg 66%
    07:00 +2°C° 0 mm 5 mps 732 mmHg 61%
    08:00 +3°C° 0 mm 6 mps 732 mmHg 55%
    09:00 +4°C° 0 mm 7 mps 733 mmHg 49%
    10:00 +4°C° 0 mm 6 mps 733 mmHg 45%
    11:00 +5°C° 0 mm 6 mps 733 mmHg 41%
    12:00 +7°C° 0 mm 6 mps 734 mmHg 37%
    13:00 +7°C° 0 mm 6 mps 734 mmHg 35%
    14:00 +8°C° 0 mm 5 mps 734 mmHg 34%
    15:00 +8°C° 0 mm 5 mps 734 mmHg 33%
    16:00 +7°C° 0 mm 4 mps 734 mmHg 34%
    17:00 +7°C° 0 mm 4 mps 734 mmHg 35%
    18:00 +8°C° 0 mm 3 mps 734 mmHg 36%
    19:00 +6°C° 0 mm 2 mps 735 mmHg 42%
    20:00 +5°C° 0 mm 1 mps 735 mmHg 48%
    21:00 +3°C° 0 mm 1 mps 736 mmHg 54%
    22:00 +3°C° 0 mm 1 mps 736 mmHg 57%
    23:00 +1°C° 0 mm 0 mps 736 mmHg 59%

    27 April, Saturday

    Time Temperature Precipitation Wind Pressure Humidity
    00:00 0°C° 0 mm 0 mps 736 mmHg 62%
    01:00 +1°C° 0 mm 1 mps 736 mmHg 62%
    02:00 +1°C° 0 mm 1 mps 736 mmHg 61%
    03:00 +1°C° 0 mm 1 mps 735 mmHg 61%
    04:00 +1°C° 0 mm 1 mps 736 mmHg 59%
    05:00 +1°C° 0 mm 1 mps 736 mmHg 57%
    06:00 +1°C° 0 mm 1 mps 736 mmHg 56%
    07:00 +2°C° 0 mm 1 mps 736 mmHg 52%
    08:00 +4°C° 0 mm 1 mps 736 mmHg 48%
    09:00 +5°C° 0 mm 1 mps 736 mmHg 44%
    10:00 +6°C° 0 mm 1 mps 736 mmHg 41%
    11:00 +8°C° 0 mm 1 mps 735 mmHg 38%
    12:00 +9°C° 0 mm 1 mps 735 mmHg 35%
    13:00 +7°C° 0 mm 2 mps 735 mmHg 36%
    14:00 +7°C° 0 mm 2 mps 734 mmHg 37%
    15:00 +7°C° 0 mm 2 mps 734 mmHg 38%
    16:00 +6°C° 0 mm 2 mps 734 mmHg 42%
    17:00 +5°C° 0 mm 2 mps 734 mmHg 46%
    18:00 +4°C° 0 mm 2 mps 734 mmHg 51%
    19:00 +3°C° 0 mm 2 mps 734 mmHg 55%
    20:00 +3°C° 0 mm 1 mps 735 mmHg 59%
    21:00 +2°C° 0 mm 1 mps 735 mmHg 62%
    22:00 +2°C° 0 mm 1 mps 735 mmHg 64%
    23:00 -1°C° 0 mm 2 mps 736 mmHg 65%

    28 April, Sunday

    Time Temperature Precipitation Wind Pressure Humidity
    00:00 -2°C° 0 mm 2 mps 736 mmHg 67%
    01:00 -2°C° 0 mm 2 mps 736 mmHg 64%
    02:00 -3°C° 0 mm 2 mps 737 mmHg 62%
    03:00 -5°C° 0 mm 3 mps 737 mmHg 60%
    04:00 -4°C° 0 mm 3 mps 738 mmHg 57%
    05:00 -4°C° 0 mm 3 mps 739 mmHg 55%
    06:00 -4°C° 0 mm 3 mps 739 mmHg 52%
    07:00 -2°C° 0 mm 3 mps 740 mmHg 44%
    08:00 0°C° 0 mm 3 mps 740 mmHg 37%
    09:00 +2°C° 0 mm 3 mps 741 mmHg 29%
    10:00 +3°C° 0 mm 3 mps 741 mmHg 28%
    11:00 +5°C° 0 mm 2 mps 741 mmHg 26%
    12:00 +7°C° 0 mm 2 mps 741 mmHg 25%
    13:00 +7°C° 0 mm 2 mps 741 mmHg 26%
    14:00 +7°C° 0 mm 2 mps 741 mmHg 27%
    15:00 +7°C° 0 mm 2 mps 741 mmHg 28%
    16:00 +5°C° 0 mm 3 mps 742 mmHg 33%
    17:00 +4°C° 0 mm 3 mps 742 mmHg 38%
    18:00 +2°C° 0 mm 3 mps 742 mmHg 43%
    19:00 +2°C° 0 mm 2 mps 742 mmHg 48%
    20:00 +1°C° 0 mm 1 mps 743 mmHg 53%
    21:00 -1°C° 0 mm 0 mps 743 mmHg 58%
    22:00 -1°C° 0 mm 0 mps 743 mmHg 57%
    23:00 -1°C° 0 mm 0 mps 744 mmHg 56%

    29 April, Monday

    Time Temperature Precipitation Wind Pressure Humidity
    00:00 -1°C° 0 mm 0 mps 744 mmHg 54%
    01:00 -1°C° 0 mm 0 mps 744 mmHg 54%
    02:00 0°C° 0 mm 1 mps 744 mmHg 53%
    03:00 0°C° 0 mm 1 mps 744 mmHg 52%
    04:00 0°C° 0 mm 1 mps 745 mmHg 54%
    05:00 -1°C° 0 mm 2 mps 745 mmHg 56%
    06:00 -1°C° 0 mm 2 mps 745 mmHg 58%
    07:00 +1°C° 0 mm 3 mps 745 mmHg 53%
    08:00 +2°C° 0 mm 3 mps 745 mmHg 47%
    09:00 +3°C° 0 mm 4 mps 745 mmHg 42%
    10:00 +4°C° 0 mm 4 mps 745 mmHg 42%
    11:00 +3°C° 0 mm 5 mps 745 mmHg 43%
    12:00 +3°C° 0 mm 5 mps 744 mmHg 44%
    13:00 +2°C° 0 mm 5 mps 744 mmHg 47%
    14:00 +2°C° 0 mm 5 mps 744 mmHg 50%
    15:00 +1°C° 0 mm 5 mps 743 mmHg 53%
    16:00 0°C° 0.1 mm 5 mps 743 mmHg 55%
    17:00 0°C° 0.1 mm 5 mps 743 mmHg 58%
    18:00 -1°C° 0.1 mm 4 mps 743 mmHg 60%
    19:00 -1°C° 0.3 mm 5 mps 743 mmHg 63%
    20:00 -1°C° 0.3 mm 5 mps 743 mmHg 65%
    21:00 -1°C° 0.3 mm 5 mps 743 mmHg 68%
    22:00 -1°C° 0.6 mm 5 mps 743 mmHg 74%
    23:00 -1°C° 0.6 mm 5 mps 742 mmHg 80%
    Show more